Tracking 32420 objects as of 9-Dec-2025
HD Live streaming from Space Station
objects crossing your sky now

COSMOS 1375 DEB

Track COSMOS 1375 DEB now!
10-day predictions


NORAD ID: 17803
Int'l Code: 1982-055AV
Perigee: 931.9 km
Apogee: 1,004.6 km
Inclination: 65.8 °
Period: 104.3 minutes
Semi major axis: 7339 km
RCS: 0.014 m2 (small)
Launch date: June 6, 1982
Source: Commonwealth of Independent States (former USSR) (CIS)
Launch site: PLESETSK MISSILE AND SPACE COMPLEX (PKMTR)

Note: This is SATELLITE DEBRIS
Your satellite tracking list
Your tracking list is empty




NASA's NSSDC Master Catalog

Two Line Element Set (TLE):
1 17803U 82055AV  25342.74270823  .00000475  00000-0  52384-3 0  9999
2 17803  65.8330 343.6438 0049494 310.9723 229.0703 13.80789077 17597
Source of the keplerian elements: AFSPC